FENGYUN 1C DEB

Satellite information

Favourite Embed

Satellite Type and Status

DEBRISIN ORBIT

Key statistics

Satellite FENGYUN 1C DEB at a glance.

Uptime

9493

Days in orbit

Revolutions

≈ 13.8

Per day

Orbit

SSO

Sun Synchronous Orbit

Inclination

98.5

Latest

Satellite identification and parameters

Extended collection of information and parameters for FENGYUN 1C DEB.

Object identification

Identified? True

Debris? True

Object name: FENGYUN 1C DEB

International designator: 1999-025BWM

Object number (NORAD): 31498

Object ID (CCSDS): 31498

Country: PEOPLES REPUBLIC OF CHINA (PRC)

Current information (Y/N): Y

RCS size: SMALL

Orbital parameters

Period: 104.656 minutes

Inclination: 98.4684 deg

SMA: 7356.482 km

Apoapsis: 1143.077 km

Periapsis: 813.617 km

RAAN: 119.71 deg

Eccentricy: 0.0223925

Argument of periapsis: 26.2549 deg

Mean anomaly: 334.9754 deg

Mean motion: 13.75933588 rev/day

Mean motion (dot): 0.00003684 rev/day2

B* drag term: 0.003193 1/REarth

Two-line elements (TLE)

Creation date: May 5, 2025, 2:56 p.m.

Reference frame: TEME

Reference center: EARTH

Epoch: May 4, 2025, 5:48 a.m. UTC

TLE line 0: 0 FENGYUN 1C DEB

TLE line 1: 1 31498U 99025BWM 25124.24190939 .00003684 00000-0 31930-2 0 9990

TLE line 2: 2 31498 98.4684 119.7100 0223925 26.2549 334.9754 13.75933588897355

Live tracking on map

Real-time ground track for satellite FENGYUN 1C DEB.

In-orbit conjunctions

A list of the most updated potential collisions computed for object FENGYUN 1C DEB.

Target Orbit TCA Probability of collision Miss distance Type
THORAD AGENA D DEB SSO 2024-11-11 05:38:15 0.0002471486 320.0 (m) DEBRIS

Associated space launch

Chinese polar orbiting meteorological satellite

FENGYUN 1C DEB was lifted into orbit during the mission ‘Long March 4B | Feng Yun 1C’, on board a Long March 4B space rocket.

The launch took place on May 10, 1999, 1:33 a.m. from Launch Complex 7.

For more information about the launch, click the button.

Launch to space Long March 4B | Feng Yun 1C
Long March 4B | Feng Yun 1C

Agency: N/A

Status: Launch Successful

Launch date: May 10, 1999, 1:33 a.m. UTC

Rocket: Long March 4B

Launch pad: Launch Complex 7

Location: Taiyuan Satellite Launch Center, People's Republic of China

...

Latest news about this satellite

There are no fresh news available about this satellite. Check back as we update our databases every day.


Newsletter sign-up

Weekly statistics, charts and insights to help you stay on top of the space industry.